TimeCST,TemperatureF,Dew PointF,Humidity,Sea Level PressureIn,VisibilityMPH,Wind Direction,Wind SpeedMPH,Gust SpeedMPH,PrecipitationIn,Events,Conditions,WindDirDegrees,DateUTC
12:53 AM,17.1,12.0,81,30.40,10.0,WNW,4.6,-,N/A,,Clear,300,2013-01-14 06:53:00
1:53 AM,16.0,12.0,84,30.40,10.0,NW,4.6,-,N/A,,Clear,310,2013-01-14 07:53:00
2:53 AM,16.0,10.9,81,30.41,10.0,WNW,3.5,-,N/A,,Clear,300,2013-01-14 08:53:00
3:53 AM,15.8,10.4,79,30.34,10.0,WNW,4.6,-,N/A,,Clear,300,2013-01-14 09:53:00
4:53 AM,15.1,10.9,84,30.37,10.0,WNW,3.5,-,N/A,,Clear,300,2013-01-14 10:53:00
5:53 AM,15.1,10.9,84,30.38,10.0,WNW,3.5,-,N/A,,Clear,290,2013-01-14 11:53:00
6:53 AM,12.0,9.0,88,30.40,10.0,NW,3.5,-,N/A,,Clear,310,2013-01-14 12:53:00
7:53 AM,17.1,12.0,81,30.46,10.0,Calm,Calm,-,N/A,,Mostly Cloudy,0,2013-01-14 13:53:00
8:53 AM,19.0,12.0,74,30.49,10.0,SSE,3.5,-,N/A,,Overcast,160,2013-01-14 14:53:00
9:53 AM,19.9,12.9,74,30.49,6.0,ENE,4.6,-,0.00,Snow,Light Snow,70,2013-01-14 15:53:00
10:03 AM,19.4,12.2,74,30.42,4.0,ENE,4.6,-,0.00,Snow,Light Snow,60,2013-01-14 16:03:00
10:53 AM,19.9,12.9,74,30.50,10.0,NNW,4.6,-,0.00,,Overcast,340,2013-01-14 16:53:00
11:53 AM,21.0,16.0,81,30.46,10.0,Variable,5.8,-,N/A,,Overcast,0,2013-01-14 17:53:00
12:53 PM,24.1,14.0,65,30.42,10.0,NNE,8.1,-,N/A,,Overcast,20,2013-01-14 18:53:00
1:53 PM,26.1,12.9,58,30.40,10.0,NE,6.9,-,N/A,,Clear,50,2013-01-14 19:53:00
2:53 PM,28.0,10.0,47,30.38,10.0,Variable,5.8,-,N/A,,Clear,0,2013-01-14 20:53:00
3:53 PM,28.4,8.6,43,30.33,10.0,ENE,5.8,-,N/A,,Clear,70,2013-01-14 21:53:00
4:53 PM,27.0,10.9,51,30.38,10.0,NNE,5.8,-,N/A,,Clear,20,2013-01-14 22:53:00
5:53 PM,24.1,10.9,57,30.37,10.0,Calm,Calm,-,N/A,,Clear,0,2013-01-14 23:53:00
6:53 PM,23.0,10.9,60,30.38,10.0,Calm,Calm,-,N/A,,Clear,0,2013-01-15 00:53:00
7:53 PM,21.9,10.9,63,30.38,10.0,Calm,Calm,-,N/A,,Clear,0,2013-01-15 01:53:00
8:53 PM,23.0,12.0,63,30.38,10.0,Calm,Calm,-,N/A,,Clear,0,2013-01-15 02:53:00
9:53 PM,21.9,12.0,66,30.37,10.0,NE,3.5,-,N/A,,Clear,50,2013-01-15 03:53:00
10:53 PM,21.0,12.0,68,30.37,10.0,Calm,Calm,-,N/A,,Clear,0,2013-01-15 04:53:00
11:53 PM,19.0,12.9,77,30.36,10.0,Calm,Calm,-,N/A,,Clear,0,2013-01-15 05:53:00